Time,TemperatureF,DewpointF,PressureIn,WindDirection,WindDirectionDegrees,WindSpeedMPH,WindSpeedGustMPH,Humidity,HourlyPrecipIn,Conditions,Clouds,dailyrainin,SolarRadiationWatts/m^2,SoftwareType,DateUTC
2013-05-19 00:11:00,57.0,40.0,-100.00,NNW,332,9.0,19.0,52,0.00,,,0.00,0.000000,,2013-05-19 07:11:00,
2013-05-19 00:21:00,57.0,40.0,-100.00,NNW,332,9.0,19.0,52,0.00,,,0.00,0.000000,,2013-05-19 07:21:00,
2013-05-19 00:32:00,57.0,40.0,-100.00,NNW,332,9.0,19.0,52,0.00,,,0.00,0.000000,,2013-05-19 07:32:00,
2013-05-19 00:41:00,57.0,40.0,-100.00,NNW,332,9.0,19.0,52,0.00,,,0.00,0.000000,,2013-05-19 07:41:00,
2013-05-19 01:12:00,54.0,38.0,-100.00,NW,320,8.0,15.0,55,0.00,,,0.00,0.000000,,2013-05-19 08:12:00,
2013-05-19 01:21:00,54.0,38.0,-100.00,NW,320,8.0,15.0,55,0.00,,,0.00,0.000000,,2013-05-19 08:21:00,
2013-05-19 01:32:00,54.0,38.0,-100.00,NW,320,8.0,15.0,55,0.00,,,0.00,0.000000,,2013-05-19 08:32:00,
2013-05-19 01:41:00,54.0,38.0,-100.00,NW,320,8.0,15.0,55,0.00,,,0.00,0.000000,,2013-05-19 08:41:00,
2013-05-19 02:11:00,55.0,37.0,-100.00,NW,323,9.0,14.0,50,0.00,,,0.00,0.000000,,2013-05-19 09:11:00,
2013-05-19 02:21:00,55.0,37.0,-100.00,NW,323,9.0,14.0,50,0.00,,,0.00,0.000000,,2013-05-19 09:21:00,
2013-05-19 02:32:00,55.0,37.0,-100.00,NW,323,9.0,14.0,50,0.00,,,0.00,0.000000,,2013-05-19 09:32:00,
2013-05-19 02:42:00,55.0,37.0,-100.00,NW,323,9.0,14.0,50,0.00,,,0.00,0.000000,,2013-05-19 09:42:00,
2013-05-19 03:12:00,54.0,38.0,-100.00,North,357,7.0,15.0,54,0.00,,,0.00,0.000000,,2013-05-19 10:12:00,
2013-05-19 03:22:00,54.0,38.0,-100.00,North,357,7.0,15.0,54,0.00,,,0.00,0.000000,,2013-05-19 10:22:00,
2013-05-19 03:32:00,54.0,38.0,-100.00,North,357,7.0,15.0,54,0.00,,,0.00,0.000000,,2013-05-19 10:32:00,
2013-05-19 03:42:00,54.0,38.0,-100.00,North,357,7.0,15.0,54,0.00,,,0.00,0.000000,,2013-05-19 10:42:00,
2013-05-19 04:11:00,51.0,38.0,-100.00,NE,54,1.0,12.0,60,0.00,,,0.00,0.000000,,2013-05-19 11:11:00,
2013-05-19 04:21:00,51.0,38.0,-100.00,NE,54,1.0,12.0,60,0.00,,,0.00,0.000000,,2013-05-19 11:21:00,
2013-05-19 04:32:00,51.0,38.0,-100.00,NE,54,1.0,12.0,60,0.00,,,0.00,0.000000,,2013-05-19 11:32:00,
2013-05-19 04:42:00,51.0,38.0,-100.00,NE,54,1.0,12.0,60,0.00,,,0.00,0.000000,,2013-05-19 11:42:00,
2013-05-19 05:11:00,49.0,38.0,-100.00,NE,35,5.0,7.0,66,0.00,,,0.00,0.000000,,2013-05-19 12:11:00,
2013-05-19 05:21:00,49.0,38.0,-100.00,NE,35,5.0,7.0,66,0.00,,,0.00,0.000000,,2013-05-19 12:21:00,
2013-05-19 05:31:00,49.0,38.0,-100.00,NE,35,5.0,7.0,66,0.00,,,0.00,0.000000,,2013-05-19 12:31:00,
2013-05-19 05:41:00,49.0,38.0,-100.00,NE,35,5.0,7.0,66,0.00,,,0.00,0.000000,,2013-05-19 12:41:00,
2013-05-19 06:11:00,46.0,35.0,-100.00,North,356,6.0,9.0,66,0.00,,,0.00,1.000000,,2013-05-19 13:11:00,
2013-05-19 06:21:00,46.0,35.0,-100.00,North,356,6.0,9.0,66,0.00,,,0.00,1.000000,,2013-05-19 13:21:00,
2013-05-19 06:31:00,46.0,35.0,-100.00,North,356,6.0,9.0,66,0.00,,,0.00,1.000000,,2013-05-19 13:31:00,
2013-05-19 06:42:00,46.0,35.0,-100.00,North,356,6.0,9.0,66,0.00,,,0.00,1.000000,,2013-05-19 13:42:00,
2013-05-19 07:11:00,51.0,37.0,-100.00,NNE,20,6.0,12.0,58,0.00,,,0.00,72.000000,,2013-05-19 14:11:00,
2013-05-19 07:21:00,51.0,37.0,-100.00,NNE,20,6.0,12.0,58,0.00,,,0.00,72.000000,,2013-05-19 14:21:00,
2013-05-19 07:32:00,51.0,37.0,-100.00,NNE,20,6.0,12.0,58,0.00,,,0.00,72.000000,,2013-05-19 14:32:00,
2013-05-19 07:41:00,51.0,37.0,-100.00,NNE,20,6.0,12.0,58,0.00,,,0.00,72.000000,,2013-05-19 14:41:00,
2013-05-19 08:11:00,52.0,35.0,-100.00,North,5,10.0,15.0,53,0.00,,,0.00,247.000000,,2013-05-19 15:11:00,
2013-05-19 08:21:00,52.0,35.0,-100.00,North,5,10.0,15.0,53,0.00,,,0.00,247.000000,,2013-05-19 15:21:00,
2013-05-19 08:33:00,52.0,35.0,-100.00,North,5,10.0,15.0,53,0.00,,,0.00,247.000000,,2013-05-19 15:33:00,
2013-05-19 08:43:00,52.0,35.0,-100.00,North,5,10.0,15.0,53,0.00,,,0.00,247.000000,,2013-05-19 15:43:00,
2013-05-19 09:12:00,54.0,35.0,-100.00,NNE,22,10.0,17.0,49,0.00,,,0.00,577.000000,,2013-05-19 16:12:00,
2013-05-19 09:23:00,54.0,35.0,-100.00,NNE,22,10.0,17.0,49,0.00,,,0.00,577.000000,,2013-05-19 16:23:00,
2013-05-19 09:32:00,54.0,35.0,-100.00,NNE,22,10.0,17.0,49,0.00,,,0.00,577.000000,,2013-05-19 16:32:00,
2013-05-19 09:42:00,54.0,35.0,-100.00,NNE,22,10.0,17.0,49,0.00,,,0.00,577.000000,,2013-05-19 16:42:00,
2013-05-19 10:12:00,57.0,35.0,-100.00,NNE,33,10.0,15.0,44,0.00,,,0.00,744.000000,,2013-05-19 17:12:00,
2013-05-19 10:22:00,57.0,35.0,-100.00,NNE,33,10.0,15.0,44,0.00,,,0.00,744.000000,,2013-05-19 17:22:00,
2013-05-19 10:32:00,57.0,35.0,-100.00,NNE,33,10.0,15.0,44,0.00,,,0.00,744.000000,,2013-05-19 17:32:00,
2013-05-19 10:42:00,57.0,35.0,-100.00,NNE,33,10.0,15.0,44,0.00,,,0.00,744.000000,,2013-05-19 17:42:00,
2013-05-19 11:12:00,60.0,34.0,-100.00,North,9,7.0,16.0,37,0.00,,,-99.99,1114.000000,,2013-05-19 18:12:00,
2013-05-19 11:21:00,60.0,34.0,-100.00,North,9,7.0,16.0,37,0.00,,,-99.99,1114.000000,,2013-05-19 18:21:00,
2013-05-19 11:32:00,60.0,34.0,-100.00,North,9,7.0,16.0,37,0.00,,,-99.99,1114.000000,,2013-05-19 18:32:00,
2013-05-19 11:42:00,60.0,34.0,-100.00,North,9,7.0,16.0,37,0.00,,,-99.99,1114.000000,,2013-05-19 18:42:00,
2013-05-19 12:11:00,62.0,31.0,-100.00,NNE,20,9.0,19.0,31,0.00,,,0.00,1175.000000,,2013-05-19 19:11:00,
2013-05-19 12:21:00,62.0,31.0,-100.00,NNE,20,9.0,19.0,31,0.00,,,0.00,1175.000000,,2013-05-19 19:21:00,
2013-05-19 12:32:00,62.0,31.0,-100.00,NNE,20,9.0,19.0,31,0.00,,,0.00,1175.000000,,2013-05-19 19:32:00,
2013-05-19 12:42:00,62.0,31.0,-100.00,NNE,20,9.0,19.0,31,0.00,,,0.00,1175.000000,,2013-05-19 19:42:00,
2013-05-19 13:11:00,64.0,29.0,-100.00,North,6,10.0,19.0,27,0.00,,,0.00,1237.000000,,2013-05-19 20:11:00,
2013-05-19 13:21:00,64.0,29.0,-100.00,North,6,10.0,19.0,27,0.00,,,0.00,1237.000000,,2013-05-19 20:21:00,
2013-05-19 13:31:00,64.0,29.0,-100.00,North,6,10.0,19.0,27,0.00,,,0.00,1237.000000,,2013-05-19 20:31:00,
2013-05-19 13:41:00,64.0,29.0,-100.00,North,6,10.0,19.0,27,0.00,,,0.00,1237.000000,,2013-05-19 20:41:00,
2013-05-19 14:11:00,67.0,31.0,-100.00,WSW,240,10.0,21.0,26,0.00,,,0.00,1246.000000,,2013-05-19 21:11:00,
2013-05-19 14:22:00,67.0,31.0,-100.00,WSW,240,10.0,21.0,26,0.00,,,0.00,1246.000000,,2013-05-19 21:22:00,
2013-05-19 14:32:00,67.0,31.0,-100.00,WSW,240,10.0,21.0,26,0.00,,,0.00,1246.000000,,2013-05-19 21:32:00,
2013-05-19 14:43:00,67.0,31.0,-100.00,WSW,240,10.0,21.0,26,0.00,,,0.00,1246.000000,,2013-05-19 21:43:00,
2013-05-19 15:12:00,68.0,30.0,-100.00,North,349,9.0,17.0,24,0.00,,,0.00,1190.000000,,2013-05-19 22:12:00,
2013-05-19 15:23:00,68.0,30.0,-100.00,North,349,9.0,17.0,24,0.00,,,0.00,1190.000000,,2013-05-19 22:23:00,
2013-05-19 15:33:00,68.0,30.0,-100.00,North,349,9.0,17.0,24,0.00,,,0.00,1190.000000,,2013-05-19 22:33:00,
2013-05-19 15:42:00,68.0,30.0,-100.00,North,349,9.0,17.0,24,0.00,,,0.00,1190.000000,,2013-05-19 22:42:00,
2013-05-19 16:11:00,70.0,30.0,-100.00,WNW,295,11.0,18.0,23,0.00,,,0.00,1067.000000,,2013-05-19 23:11:00,
2013-05-19 16:21:00,70.0,30.0,-100.00,WNW,295,11.0,18.0,23,0.00,,,0.00,1067.000000,,2013-05-19 23:21:00,
2013-05-19 16:32:00,70.0,30.0,-100.00,WNW,295,11.0,18.0,23,0.00,,,0.00,1067.000000,,2013-05-19 23:32:00,
2013-05-19 16:42:00,70.0,30.0,-100.00,WNW,295,11.0,18.0,23,0.00,,,0.00,1067.000000,,2013-05-19 23:42:00,
2013-05-19 17:11:00,70.0,30.0,-100.00,North,8,10.0,23.0,23,0.00,,,0.00,882.000000,,2013-05-20 00:11:00,
2013-05-19 17:21:00,70.0,30.0,-100.00,North,8,10.0,23.0,23,0.00,,,0.00,882.000000,,2013-05-20 00:21:00,
2013-05-19 17:32:00,70.0,30.0,-100.00,North,8,10.0,23.0,23,0.00,,,0.00,882.000000,,2013-05-20 00:32:00,
2013-05-19 17:41:00,70.0,30.0,-100.00,North,8,10.0,23.0,23,0.00,,,0.00,882.000000,,2013-05-20 00:41:00,
2013-05-19 18:11:00,69.0,22.0,-100.00,NNW,333,11.0,21.0,17,0.00,,,0.00,649.000000,,2013-05-20 01:11:00,
2013-05-19 18:21:00,69.0,22.0,-100.00,NNW,333,11.0,21.0,17,0.00,,,0.00,649.000000,,2013-05-20 01:21:00,
2013-05-19 18:31:00,69.0,22.0,-100.00,NNW,333,11.0,21.0,17,0.00,,,0.00,649.000000,,2013-05-20 01:31:00,
2013-05-19 18:42:00,69.0,22.0,-100.00,NNW,333,11.0,21.0,17,0.00,,,0.00,649.000000,,2013-05-20 01:42:00,
2013-05-19 19:11:00,68.0,25.0,-100.00,NNW,342,11.0,20.0,20,0.00,,,0.00,399.000000,,2013-05-20 02:11:00,
2013-05-19 19:21:00,68.0,25.0,-100.00,NNW,342,11.0,20.0,20,0.00,,,0.00,399.000000,,2013-05-20 02:21:00,
2013-05-19 19:31:00,68.0,25.0,-100.00,NNW,342,11.0,20.0,20,0.00,,,0.00,399.000000,,2013-05-20 02:31:00,
2013-05-19 19:42:00,68.0,25.0,-100.00,NNW,342,11.0,20.0,20,0.00,,,0.00,399.000000,,2013-05-20 02:42:00,
2013-05-19 20:11:00,65.0,24.0,-100.00,NNE,24,13.0,23.0,21,0.00,,,0.00,103.000000,,2013-05-20 03:11:00,
2013-05-19 20:21:00,65.0,24.0,-100.00,NNE,24,13.0,23.0,21,0.00,,,0.00,103.000000,,2013-05-20 03:21:00,
2013-05-19 20:33:00,65.0,24.0,-100.00,NNE,24,13.0,23.0,21,0.00,,,0.00,103.000000,,2013-05-20 03:33:00,
2013-05-19 20:42:00,65.0,24.0,-100.00,NNE,24,13.0,23.0,21,0.00,,,0.00,103.000000,,2013-05-20 03:42:00,
2013-05-19 21:12:00,61.0,25.0,-100.00,NNE,13,8.0,19.0,25,0.00,,,0.00,6.000000,,2013-05-20 04:12:00,
2013-05-19 21:23:00,61.0,25.0,-100.00,NNE,13,8.0,19.0,25,0.00,,,0.00,6.000000,,2013-05-20 04:23:00,
2013-05-19 21:33:00,61.0,25.0,-100.00,NNE,13,8.0,19.0,25,0.00,,,0.00,6.000000,,2013-05-20 04:33:00,
2013-05-19 21:42:00,61.0,25.0,-100.00,NNE,13,8.0,19.0,25,0.00,,,0.00,6.000000,,2013-05-20 04:42:00,
2013-05-19 22:12:00,58.0,24.0,-100.00,NNE,19,5.0,12.0,27,0.00,,,0.00,0.000000,,2013-05-20 05:12:00,
2013-05-19 22:21:00,58.0,24.0,-100.00,NNE,19,5.0,12.0,27,0.00,,,0.00,0.000000,,2013-05-20 05:21:00,
2013-05-19 22:32:00,58.0,24.0,-100.00,NNE,19,5.0,12.0,27,0.00,,,0.00,0.000000,,2013-05-20 05:32:00,
2013-05-19 22:42:00,58.0,24.0,-100.00,NNE,19,5.0,12.0,27,0.00,,,0.00,0.000000,,2013-05-20 05:42:00,
2013-05-19 23:11:00,56.0,25.0,-100.00,NNE,24,6.0,13.0,30,0.00,,,0.00,0.000000,,2013-05-20 06:11:00,
2013-05-19 23:21:00,56.0,25.0,-100.00,NNE,24,6.0,13.0,30,0.00,,,0.00,0.000000,,2013-05-20 06:21:00,
2013-05-19 23:32:00,56.0,25.0,-100.00,NNE,24,6.0,13.0,30,0.00,,,0.00,0.000000,,2013-05-20 06:32:00,
2013-05-19 23:41:00,56.0,25.0,-100.00,NNE,24,6.0,13.0,30,0.00,,,0.00,0.000000,,2013-05-20 06:41:00,